Preview of NWS' New Version of Forecast
This preview is not operational and should not be used for support decisions.

Regional Weather Roundup (RWR)

Issued by National Weather Service (NWS)

                            
000
ASUS46 KPQR 190110
RWROR 

OREGON REGIONAL WEATHER ROUNDUP
NATIONAL WEATHER SERVICE PORTLAND OR
600 PM PDT THU APR 18 2019

NOTE: "FAIR" INDICATES FEW OR NO CLOUDS BELOW 12,000 FEET WITH
NO SIGNIFICANT WEATHER AND/OR OBSTRUCTIONS TO VISIBILITY.

ORZ001>013-190200-
NORTHWEST OREGON

  
CITY           SKY/WX    TMP DP  RH WIND       PRES   REMARKS
ASTORIA        CLOUDY    58  51  78 W10       30.13F                  
TILLAMOOK      MOSUNNY   63  52  67 NW3       30.15F                  
NEWPORT        MOSUNNY   59  52  77 NW3       30.16F                  
PORTLAND       PTSUNNY   75  47  36 CALM      30.07F                  
VANCOUVER WA   MOSUNNY   74  48  39 CALM      30.06F                  
SCAPPOOSE      MOSUNNY   74  53  48 SE6       30.07F                  
HILLSBORO      PTSUNNY   72  53  51 N3        30.07F                  
AURORA         MOSUNNY   74  55  51 CALM      30.09F                  
MCMINNVILLE    MOSUNNY   74  55  51 CALM      30.07F                  
SALEM          MOSUNNY   74  56  53 NE9       30.06F                  
CORVALLIS      SUNNY     78  57  48 NE3       30.07F                  
EUGENE         MOSUNNY   77  57  50 NE7       30.07F                  
$$

ORZ021-028-190200-
SOUTHWEST OREGON

  
CITY           SKY/WX    TMP DP  RH WIND       PRES   REMARKS
NORTH BEND     SUNNY     60  53  77 N12       30.14F                  
BROOKINGS      SUNNY     63  54  72 SE6       30.07F                  
ROSEBURG       SUNNY     85  48  27 N6        30.04F                  
SEXTON SUMMIT  SUNNY     70  43  37 VRB5      30.17F                  
GRANTS PASS    FAIR      84  39  20 CALM      30.05F                  
MEDFORD        FAIR      84  42  22 N5        30.03F                  
$$

ORZ014>016-041-190200-
COLUMBIA GORGE

  
CITY           SKY/WX    TMP DP  RH WIND       PRES   REMARKS
TROUTDALE      MOSUNNY   76  50  40 NE5       30.07F                  
HOOD RIVER     MOSUNNY   73  46  38 MISG      30.05F                  
THE DALLES     MOSUNNY   78  52  40 NW8       30.03F                  
$$

ORZ029>031-041-044-049-050-061>064-502-503-505>511-190200-
EASTERN OREGON

  
CITY           SKY/WX    TMP DP  RH WIND       PRES   REMARKS
MADRAS         SUNNY     73  48  40 N5        30.11F                  
REDMOND        SUNNY     79  43  27 N8        30.11F                  
BEND           SUNNY     77  41  27 NE6       30.12F                  
PRINEVILLE     SUNNY     75  41  29 CALM      30.12F                  
KLAMATH FALLS  SUNNY     75  36  24 S5        30.16F                  
LAKEVIEW       SUNNY     70  35  27 S5        30.22F                  
HERMISTON      PTSUNNY   79  50  36 S3        30.03F                  
PENDLETON      PTSUNNY   74  50  42 NE3       30.07F                  
JOHN DAY       MOSUNNY   73  42  32 W7        30.16F                  
MEACHAM        SUNNY     66  44  45 CALM      30.17F                  
LA GRANDE      MOSUNNY   71  48  43 S10G16    30.14F                  
BAKER CITY     CLOUDY    68  31  25 E13       30.17S                  
BURNS          MOSUNNY   72  40  31 SE6       30.20F                  
ROME             N/A     75  36  24 N3        30.19F                  
ONTARIO        PTSUNNY   74  43  32 SE3       30.18F                  
$$